Weather Roundup
Issued by NWS Springfield, MO

Home | Current Version | Previous Version | Text Only | Print | Product List | Glossary On
Versions: 1 2 3 4 5 6 7 8 9 10 11 12 13 14 15 16 17 18 19 20 21 22 23 24 25 26 27 28 29 30 31 32 33 34 35 36 37 38 39 40 41 42 43 44 45 46 47 48 49 50
000
NZUS99 KSGF 231757
HRRSGF

HOURLY WEATHER
NATIONAL WEATHER SERVICE SPRINGFIELD MO
1200 PM CST THU FEB 23 2017

......SGF CWA......

CITY           SKY/WX    TMP DP  RH WIND       PRES   REMARKS
SPRINGFIELD    MOSUNNY   70  54  56 S21G26    29.55F
6HR MIN TEMP:  53; 6HR MAX TEMP:  70;

JOPLIN         MOSUNNY   77  52  41 S13       29.50F
6HR MIN TEMP:  54; 6HR MAX TEMP:  77;

WEST PLAINS    MOSUNNY   67  57  70 S12G21    29.67F
6HR MIN TEMP:  52; 6HR MAX TEMP:  67;

ROLLA          PTSUNNY   63  55  75 SE9       29.63F
6HR MIN TEMP:  51; 6HR MAX TEMP:  63;

BRANSON        MOSUNNY   72  52  49 S15G21    29.61F

......SURROUNDING SGF CWA......

CITY           SKY/WX    TMP DP  RH WIND       PRES   REMARKS
CHANUTE        CLOUDY    69  51  52 MISG      29.50F
PARSONS        PTSUNNY   72  50  45 S12       29.50F
COFFEYVILLE    MOSUNNY   74  52  46 SW15      29.49F
EMPORIA        CLOUDY    61  47  59 E15G24    29.48F
HARRISON AR    SUNNY     75  50  41 S20G25    29.62F

......KANSAS AND MISSOURI......

CITY           SKY/WX    TMP DP  RH WIND       PRES   REMARKS
KANSAS CTY INT CLOUDY    50  40  68 E18G25    29.56F
SEDALIA        CLOUDY    65  52  62 NE14      29.63F
ST JOSEPH      CLOUDY    47  41  80 E16       29.58F
ST LOUIS       PTSUNNY   70  54  56 SE10      29.67F
KIRKSVILLE     PTSUNNY   47  41  80 NE15      29.70F
WICHITA        PTSUNNY   65  49  56 SE10      29.46F
TOPEKA         PTSUNNY   55  42  61 E23       29.53F
OLATHE         CLOUDY    51  43  74 E16G28    29.55F

......TENNESSEE......

CITY           SKY/WX    TMP DP  RH WIND       PRES   REMARKS
MEMPHIS        NOT AVBL
NASHVILLE      CLOUDY    70  56  61 SW9       29.83F

......ARKANSAS.......

CITY           SKY/WX    TMP DP  RH WIND       PRES   REMARKS
FAYETTEVILLE   SUNNY     76  50  40 S12G23    29.57F
FT SMITH       SUNNY     75  55  49 NE8       29.57F
LITTLE ROCK    MOSUNNY   73  59  61 S15       29.72F

......OKLAHOMA.......

CITY           SKY/WX    TMP DP  RH WIND       PRES   REMARKS
TULSA          PTSUNNY   75  50  41 S18G24    29.47F
PONCA CITY     SUNNY     69  49  48 S8        29.46F
MCALESTER      SUNNY     79  48  33 S13G25    29.56F
OKLAHOMA CITY  MOSUNNY   76  43  30 S17       29.49F

......IOWA............

CITY           SKY/WX    TMP DP  RH WIND       PRES   REMARKS
DES MOINES     NOT AVBL
QUAD CITIES    CLOUDY    48  41  76 N9        29.78F

......ILLINOIS........

CITY           SKY/WX    TMP DP  RH WIND       PRES   REMARKS
QUINCY         NOT AVBL
CHICAGO        CLOUDY    44  37  76 NE15      29.82F




USA.gov is the U.S. government's official web portal to all federal, state and local government web resources and services.